User: anonymous   Login
Location: Unspecified
(0.0000°N, 0.0000°E)
Time: 12:36:37
(UTC+00:00)
Language:

COMPASS 1 - Orbit

View from above orbital plane
View from above orbital plane
View from above satellite
View from above satellite

Ground track
Ground track

The orbit data is extracted from the following two-line orbital elements,

1 32787U 08021E   21339.88791102  .00001037  00000-0  10103-3 0  9991
2 32787  97.5446 323.9694 0013730  76.6228 283.6522 14.94489126739134
Epoch (UTC): 05 December 2021 21:18:35
Eccentricity: 0.0013730
inclination: 97.5446°
perigee height: 574 km
apogee height: 593 km
right ascension of ascending node: 323.9694°
argument of perigee: 76.6228°
revolutions per day: 14.94489126
mean anomaly at epoch: 283.6522°
orbit number at epoch: 73913

The dashed part of the orbit path shows where the satellite is in the earth's shadow,  

DLR